Find Starlink 35488

NORAD ID: 66254 Int'l Des: 2025-245 Owner: SPXS Country: US Constellation: starlink operational
LEOCIRCULAR

当前视图

正在加载3D地球...

关于 Starlink 35488

正在加载描述...

即将过境

Passes for default location (London). Set your location on the main map for personalized predictions.

高度历史

Loading altitude history...

两行轨道根数

1 66254U 25245W 26146.59310862 .00028212 00000-0 91723-3 0 9994
2 66254 53.1590 282.0523 0001110 88.3438 271.7691 15.31707562 33182
Epoch: May 26, 2026 • Age: 8 hours

当前状态

高度 485.2 km
速度 7.62 km/s
星下点 -41.70°S, 27.2°E
发射日期 Oct 29, 2025
运行时间 0.5 years
类型 internet

技术详情

分类 Payload
质量 575.00 kg
干质量 530.00 kg
总质量 575.00 kg
长度 0.30 m
直径 4.10 m
跨度 29.00 m
形状 Box + pan
制造商 SPXS
平台类型 Starlink V2MO
阶段状态 In Orbit
所有者/国家 SPXS/US

Most Searched